FW4606 Weather Reports


time (UTC)temp
C
wind
direction
speed
KPH
gust
KPH
rain 1hr
cm
rain 24hr
cm
rain mn
cm
humidity
%
barometer
mb
20240305112904 -7 304 0.0 0.0 0.00 0.00 0.00 82 1020.3
20240305112405 -7 304 0.0 0.0 0.00 0.00 0.00 81 1020.3
20240305111904 -7 304 0.0 0.0 0.00 0.00 0.00 80 1020.3
20240305111404 -7 304 0.0 0.0 0.00 0.00 0.00 78 1020.2
20240305110901 -7 304 0.0 0.0 0.00 0.00 0.00 78 1020.2
20240305110401 -6 304 0.0 0.0 0.00 0.00 0.00 77 1020.1
20240305105901 -6 304 0.0 0.0 0.00 0.00 0.00 76 1020.1
20240305105631 -6 303 0.0 0.0 0.00 0.00 0.00 76 1019.9
20240305104901 -6 304 0.0 0.0 0.00 0.00 0.00 75 1019.8
20240305104358 -6 304 0.0 0.0 0.00 0.00 0.00 75 1019.8
20240305103858 -6 304 0.0 0.0 0.00 0.00 0.00 75 1019.6
20240305103356 -6 304 0.0 0.0 0.00 0.00 0.00 74 1019.5
20240305102857 -6 304 0.0 0.0 0.00 0.00 0.00 74 1019.4
20240305102357 -6 303 0.0 0.0 0.00 0.00 0.00 74 1019.2
20240305101857 -6 303 0.0 0.0 0.00 0.00 0.00 75 1019.0
20240305101354 -6 304 0.0 0.0 0.00 0.00 0.00 75 1018.9
20240305100851 -6 304 0.0 0.0 0.00 0.00 0.00 74 1018.9
20240305100352 -6 304 0.0 0.0 0.00 0.00 0.00 74 1018.9
20240305095853 -6 304 0.0 0.0 0.00 0.00 0.00 74 1018.8
20240305095351 -6 304 0.0 0.0 0.00 0.00 0.00 73 1018.6
20240305094851 -6 304 0.0 0.0 0.00 0.00 0.00 72 1018.4
20240305094621 -6 304 0.0 0.0 0.00 0.00 0.00 72 1018.2
20240305093847 -6 304 0.0 0.0 0.00 0.00 0.00 71 1018.2
20240305093348 -5 104 0.0 0.0 0.00 0.00 0.00 70 1018.1
20240305093116 -5 104 0.0 0.0 0.00 0.00 0.00 70 1018.1
20240305092343 -5 342 0.0 0.0 0.00 0.00 0.00 70 1018.0
20240305091842 -5 341 0.0 0.0 0.00 0.00 0.00 70 1018.1
20240305091617 -5 342 0.0 1.6 0.00 0.00 0.00 69 1018.2
20240305090841 -5 342 0.0 1.6 0.00 0.00 0.00 70 1018.3
20240305090339 -5 11 0.0 1.6 0.00 0.00 0.00 72 1018.2
20240305085839 -6 11 0.0 1.6 0.00 0.00 0.00 73 1018.2
20240305085338 -6 352 0.0 0.0 0.00 0.00 0.00 73 1018.2
20240305084838 -6 352 0.0 0.0 0.00 0.00 0.00 72 1018.1
20240305084337 -5 352 0.0 0.0 0.00 0.00 0.00 71 1018.1
20240305083829 -5 352 0.0 0.0 0.00 0.00 0.00 71 1018.1
20240305083324 -5 352 0.0 0.0 0.00 0.00 0.00 70 1018.3
20240305082818 -5 353 0.0 0.0 0.00 0.00 0.00 70 1018.4
20240305082311 -5 352 0.0 0.0 0.00 0.00 0.00 70 1018.4
20240305081806 -5 351 0.0 0.0 0.00 0.00 0.00 70 1018.5
20240305081300 -5 351 0.0 0.0 0.00 0.00 0.00 70 1018.4
20240305080753 -5 351 0.0 0.0 0.00 0.00 0.00 70 1018.3
20240305080248 -5 351 0.0 0.0 0.00 0.00 0.00 70 1018.4
20240305075742 -5 351 0.0 0.0 0.00 0.00 0.00 69 1018.4
20240305075236 -4 351 0.0 0.0 0.00 0.00 0.00 68 1018.5
20240305074730 -4 351 0.0 1.6 0.00 0.00 0.00 68 1018.4
20240305074225 -4 353 0.0 1.6 0.00 0.00 0.00 68 1018.3
20240305073719 -4 1 0.0 0.0 0.00 0.00 0.00 68 1018.3
20240305073212 -4 1 0.0 1.6 0.00 0.00 0.00 68 1018.3
20240305072706 -5 1 0.0 1.6 0.00 0.00 0.00 69 1018.4
20240305072430 -4 1 0.0 0.0 0.00 0.00 0.00 68 1018.5
20240305071653 -5 1 0.0 0.0 0.00 0.00 0.00 69 1018.4
20240305071418 -4 1 0.0 0.0 0.00 0.00 0.00 68 1018.7
20240305070642 -4 1 0.0 0.0 0.00 0.00 0.00 67 1018.5
20240305070136 -4 1 0.0 0.0 0.00 0.00 0.00 67 1018.6
20240305065631 -4 1 0.0 0.0 0.00 0.00 0.00 66 1018.8
20240305065625 -3 1 0.0 0.0 0.00 0.00 0.00 66 1018.7
20240305064618 -3 1 0.0 0.0 0.00 0.00 0.00 65 1018.7
20240305064112 -3 1 0.0 0.0 0.00 0.00 0.00 64 1018.7
20240305063605 -3 359 0.0 0.0 0.00 0.00 0.00 63 1018.6
20240305063332 -3 1 0.0 1.6 0.00 0.00 0.00 63 1018.5
20240305062554 -3 1 0.0 1.6 0.00 0.00 0.00 63 1018.5
20240305062048 -3 1 0.0 0.0 0.00 0.00 0.00 63 1018.5
20240305061814 -2 1 0.0 0.0 0.00 0.00 0.00 63 1018.6
20240305061035 -2 1 0.0 1.6 0.00 0.00 0.00 63 1018.5
20240305060530 -2 1 0.0 1.6 0.00 0.00 0.00 63 1018.5
20240305060023 -2 5 0.0 0.0 0.00 0.00 0.00 64 1018.6
20240305055519 -3 5 0.0 0.0 0.00 0.00 0.00 65 1018.6
20240305055013 -3 5 0.0 0.0 0.00 0.00 0.00 66 1018.6
20240305054507 -2 5 0.0 0.0 0.00 0.00 0.00 66 1018.6
20240305054000 -2 5 0.0 0.0 0.00 0.00 0.00 66 1018.5
20240305053454 -2 5 0.0 1.6 0.00 0.00 0.00 66 1018.5
20240305052949 -2 5 0.0 1.6 0.00 0.00 0.00 67 1018.4
20240305052443 -2 11 0.0 1.6 0.00 0.00 0.00 69 1018.4
20240305051937 -3 30 0.0 1.6 0.00 0.00 0.00 71 1018.2
20240305051703 -3 30 0.0 1.6 0.00 0.00 0.00 72 1018.3
20240305050925 -3 30 0.0 1.6 0.00 0.00 0.00 73 1018.2
20240305050418 -3 30 0.0 1.6 0.00 0.00 0.00 74 1018.1
20240305045913 -3 37 0.0 0.0 0.00 0.00 0.00 72 1018.2
20240305045407 -3 37 0.0 0.0 0.00 0.00 0.00 71 1018.2
20240305044902 -2 37 0.0 1.6 0.00 0.00 0.00 70 1018.1
20240305044355 -2 37 0.0 1.6 0.00 0.00 0.00 70 1017.8
20240305043848 -2 37 0.0 1.6 0.00 0.00 0.00 70 1017.7
20240305043343 -2 37 0.0 1.6 0.00 0.00 0.00 70 1017.6
20240305042837 -2 37 0.0 1.6 0.00 0.00 0.00 71 1017.4
20240305042330 -2 37 0.0 1.6 0.00 0.00 0.00 71 1017.6
20240305041825 -3 37 0.0 1.6 0.00 0.00 0.00 73 1017.5
20240305041318 -3 37 0.0 0.0 0.00 0.00 0.00 74 1017.6
20240305040813 -3 40 0.0 0.0 0.00 0.00 0.00 75 1017.6
20240305040307 -3 40 0.0 0.0 0.00 0.00 0.00 77 1017.5
20240305035801 -3 40 0.0 0.0 0.00 0.00 0.00 80 1017.6
20240305035255 -4 40 0.0 0.0 0.00 0.00 0.00 82 1017.6
20240305034748 -4 39 0.0 0.0 0.00 0.00 0.00 84 1017.6
20240305034243 -4 39 0.0 0.0 0.00 0.00 0.00 83 1017.6
20240305033737 -3 40 0.0 0.0 0.00 0.00 0.00 84 1017.5
20240305033232 -3 40 0.0 0.0 0.00 0.00 0.00 85 1017.4
20240305033227 -3 39 0.0 0.0 0.00 0.00 0.00 85 1017.3
20240305032219 -3 40 0.0 0.0 0.00 0.00 0.00 84 1017.3
20240305031713 -3 40 0.0 0.0 0.00 0.00 0.00 83 1017.3
20240305031207 -3 40 0.0 0.0 0.00 0.00 0.00 82 1017.3
20240305030700 -3 40 0.0 0.0 0.00 0.00 0.00 81 1017.3
20240305030427 -3 39 0.0 0.0 0.00 0.00 0.00 81 1017.1
20240305025649 -3 39 0.0 0.0 0.00 0.00 0.00 79 1017.1
20240305025413 -3 40 0.0 0.0 0.00 0.00 0.00 77 1017.3
20240305024907 -3 40 0.0 1.6 0.00 0.00 0.00 76 1017.1
20240305024131 -3 40 0.0 1.6 0.00 0.00 0.00 77 1017.0
20240305023624 -3 9 0.0 0.0 0.00 0.00 0.00 77 1016.9
20240305023119 -3 9 0.0 0.0 0.00 0.00 0.00 77 1016.8
20240305022844 -3 9 0.0 0.0 0.00 0.00 0.00 75 1016.8
20240305022340 -3 9 0.0 0.0 0.00 0.00 0.00 73 1016.9
20240305022103 -2 9 0.0 0.0 0.00 0.00 0.00 73 1016.9
20240305021055 -2 9 0.0 0.0 0.00 0.00 0.00 73 1016.9
20240305020820 -2 8 0.0 0.0 0.00 0.00 0.00 74 1016.7
20240305020045 -2 9 0.0 0.0 0.00 0.00 0.00 74 1016.6
20240305020040 -2 8 0.0 0.0 0.00 0.00 0.00 72 1016.4
20240305015031 -2 8 0.0 0.0 0.00 0.00 0.00 70 1016.4
20240305014755 -1 7 0.0 0.0 0.00 0.00 0.00 68 1016.5
20240305014019 -1 9 0.0 0.0 0.00 0.00 0.00 69 1016.3
20240305013513 -1 9 0.0 0.0 0.00 0.00 0.00 69 1016.3
20240305013007 -1 9 0.0 0.0 0.00 0.00 0.00 70 1016.4
20240305012731 -1 9 0.0 0.0 0.00 0.00 0.00 71 1016.5
20240305011955 -1 8 0.0 0.0 0.00 0.00 0.00 70 1016.7
20240305011449 -1 8 0.0 0.0 0.00 0.00 0.00 67 1016.6
20240305010943 -1 7 0.0 0.0 0.00 0.00 0.00 64 1016.5
20240305010436 0 8 0.0 0.0 0.00 0.00 0.00 63 1016.4
20240305005931 0 8 0.0 0.0 0.00 0.00 0.00 62 1016.4
20240305005425 0 7 0.0 0.0 0.00 0.00 0.00 63 1016.2
20240305004919 0 8 0.0 0.0 0.00 0.00 0.00 62 1016.2
20240305004643 0 8 0.0 0.0 0.00 0.00 0.00 62 1016.2
20240305003907 0 7 0.0 0.0 0.00 0.00 0.00 62 1016.1
20240305003401 0 8 0.0 0.0 0.00 0.00 0.00 61 1016.0
20240305003125 1 8 0.0 0.0 0.00 0.00 0.00 57 1016.0
20240305002349 1 7 0.0 0.0 0.00 0.00 0.00 56 1015.8
20240305001845 1 8 0.0 0.0 0.00 0.00 0.00 55 1015.7
20240305001609 2 8 0.0 1.6 0.00 0.00 0.00 54 1015.7
20240305000831 2 7 0.0 1.6 0.00 0.00 0.00 53 1015.7
20240305000325 2 8 0.0 1.6 0.00 0.00 0.00 53 1015.7
20240304235820 2 11 0.0 1.6 0.00 0.00 0.00 53 1015.7
20240304235545 3 13 0.0 1.6 0.00 0.00 0.00 52 1015.6
20240304234813 3 3 0.0 1.6 0.00 0.00 0.00 52 1015.6
20240304234309 3 351 0.0 3.2 0.00 0.00 0.00 52 1015.6
20240304233809 3 351 0.0 3.2 0.00 0.00 0.00 51 1015.6
20240304233309 4 356 0.0 4.8 0.00 0.00 0.00 52 1015.7
20240304233040 5 4 0.0 4.8 0.00 0.00 0.00 50 1015.7
20240304232307 5 11 1.6 4.8 0.00 0.00 0.00 52 1015.8
20240304231804 4 11 1.6 6.4 0.00 0.00 0.00 50 1015.7
20240304231305 4 84 1.6 6.4 0.00 0.00 0.00 50 1015.7
20240304231035 4 20 0.0 4.8 0.00 0.00 0.00 53 1015.7
20240304230532 3 350 0.0 4.8 0.00 0.00 0.00 50 1015.6
20240304225801 4 356 0.0 4.8 0.00 0.00 0.00 50 1015.5
20240304225257 4 345 1.6 4.8 0.00 0.00 0.00 52 1015.5
20240304224756 3 354 0.0 4.8 0.00 0.00 0.00 52 1015.4
20240304224253 3 8 0.0 4.8 0.00 0.00 0.00 54 1015.5
20240304223753 3 13 0.0 3.2 0.00 0.00 0.00 55 1015.5
20240304223254 3 48 0.0 3.2 0.00 0.00 0.00 52 1015.3
20240304222753 3 351 0.0 3.2 0.00 0.00 0.00 53 1015.4
20240304222527 3 6 0.0 3.2 0.00 0.00 0.00 55 1015.5
20240304221755 3 7 0.0 3.2 0.00 0.00 0.00 54 1015.4
20240304221249 3 343 0.0 3.2 0.00 0.00 0.00 51 1015.2
20240304221014 3 9 0.0 1.6 0.00 0.00 0.00 53 1015.3
20240304220508 4 9 0.0 1.6 0.00 0.00 0.00 52 1015.2
20240304215737 4 351 0.0 0.0 0.00 0.00 0.00 53 1015.4
20240304215239 3 351 0.0 3.2 0.00 0.00 0.00 53 1015.3
20240304214737 3 345 0.0 3.2 0.00 0.00 0.00 53 1015.3
20240304214233 3 129 0.0 3.2 0.00 0.00 0.00 53 1015.3
20240304213734 3 122 0.0 3.2 0.00 0.00 0.00 53 1015.2
20240304213235 3 30 0.0 3.2 0.00 0.00 0.00 50 1015.3
20240304212736 4 356 0.0 3.2 0.00 0.00 0.00 50 1015.2
20240304212231 4 274 0.0 1.6 0.00 0.00 0.00 52 1015.3
20240304211730 4 271 0.0 1.6 0.00 0.00 0.00 53 1015.2
20240304211232 4 132 0.0 1.6 0.00 0.00 0.00 52 1015.2
20240304210729 4 193 0.0 1.6 0.00 0.00 0.00 52 1015.1
20240304210227 4 139 0.0 1.6 0.00 0.00 0.00 52 1015.3
20240304205727 3 119 0.0 3.2 0.00 0.00 0.00 51 1015.2
20240304205229 3 153 0.0 3.2 0.00 0.00 0.00 51 1015.1
20240304204727 3 354 0.0 3.2 0.00 0.00 0.00 50 1015.0
20240304204223 4 345 0.0 3.2 0.00 0.00 0.00 49 1015.0
20240304203723 4 343 0.0 3.2 0.00 0.00 0.00 48 1015.0
20240304203222 4 184 0.0 3.2 0.00 0.00 0.00 49 1014.8
20240304202717 4 207 0.0 4.8 0.00 0.00 0.00 50 1014.8
20240304202211 4 315 0.0 4.8 0.00 0.00 0.00 48 1014.6
20240304201708 4 276 0.0 0.0 0.00 0.00 0.00 51 1014.6
20240304201208 4 203 0.0 1.6 0.00 0.00 0.00 48 1014.7
20240304200707 4 197 0.0 3.2 0.00 0.00 0.00 50 1014.8
20240304200209 4 24 0.0 3.2 0.00 0.00 0.00 50 1015.0
20240304195706 3 214 0.0 3.2 0.00 0.00 0.00 50 1014.9
20240304195439 3 13 0.0 1.6 0.00 0.00 0.00 49 1014.9
20240304194938 3 176 0.0 1.6 0.00 0.00 0.00 50 1015.0
20240304194207 3 7 0.0 4.8 0.00 0.00 0.00 50 1014.9
20240304193705 3 352 0.0 4.8 0.00 0.00 0.00 48 1015.1
20240304193206 3 155 0.0 3.2 0.00 0.00 0.00 50 1015.1
20240304192707 3 225 0.0 3.2 0.00 0.00 0.00 51 1015.1
20240304192206 3 242 0.0 3.2 0.00 0.00 0.00 52 1015.0
20240304191707 3 205 0.0 3.2 0.00 0.00 0.00 51 1015.1
20240304191437 3 236 1.6 3.2 0.00 0.00 0.00 50 1015.1
20240304190937 3 253 1.6 4.8 0.00 0.00 0.00 54 1015.2
20240304190439 3 207 1.6 4.8 0.00 0.00 0.00 53 1015.2
20240304185705 2 181 0.0 3.2 0.00 0.00 0.00 53 1015.2
20240304185435 2 186 0.0 3.2 0.00 0.00 0.00 52 1015.4
20240304184705 3 351 0.0 3.2 0.00 0.00 0.00 51 1015.3
20240304184201 3 200 0.0 3.2 0.00 0.00 0.00 54 1015.4
20240304183702 2 269 0.0 1.6 0.00 0.00 0.00 54 1015.4
20240304183435 2 6 0.0 1.6 0.00 0.00 0.00 52 1015.4
20240304182655 2 6 0.0 1.6 0.00 0.00 0.00 53 1015.6
20240304182424 2 48 0.0 1.6 0.00 0.00 0.00 54 1015.6
20240304181926 2 0 0.0 1.6 0.00 0.00 0.00 55 1015.8
20240304181155 2 34 0.0 3.2 0.00 0.00 0.00 56 1015.8
20240304180653 2 242 0.0 3.2 0.00 0.00 0.00 58 1015.9
20240304180153 2 258 0.0 0.0 0.00 0.00 0.00 57 1015.9
20240304175651 2 262 0.0 3.2 0.00 0.00 0.00 58 1015.8
20240304175153 2 263 0.0 3.2 0.00 0.00 0.00 60 1015.9
20240304174652 2 103 0.0 3.2 0.00 0.00 0.00 60 1015.7
20240304174152 2 352 0.0 1.6 0.00 0.00 0.00 60 1015.8
20240304173652 1 351 0.0 3.2 0.00 0.00 0.00 60 1015.6
20240304173149 1 298 0.0 3.2 0.00 0.00 0.00 59 1015.7
20240304172919 2 332 0.0 3.2 0.00 0.00 0.00 59 1015.5
20240304172147 1 346 0.0 3.2 0.00 0.00 0.00 61 1015.3
20240304171648 1 331 0.0 3.2 0.00 0.00 0.00 62 1015.3
20240304171148 1 0 0.0 3.2 0.00 0.00 0.00 61 1015.3
20240304170653 1 309 1.6 8.0 0.00 0.00 0.00 63 1015.2
20240304170648 1 308 0.0 1.6 0.00 0.00 0.00 63 1015.2
20240304165649 1 6 1.6 8.0 0.00 0.00 0.00 60 1015.2
20240304165149 1 5 1.6 4.8 0.00 0.00 0.00 60 1015.4
20240304164915 1 353 1.6 4.8 0.00 0.00 0.00 60 1015.2
20240304164145 1 343 0.0 3.2 0.00 0.00 0.00 63 1015.4
20240304163645 1 3 0.0 4.8 0.00 0.00 0.00 64 1015.2
20240304163143 1 25 0.0 4.8 0.00 0.00 0.00 61 1015.1
20240304162643 1 15 0.0 3.2 0.00 0.00 0.00 63 1015.3
20240304162146 1 347 1.6 3.2 0.00 0.00 0.00 61 1015.3
20240304161918 1 8 0.0 3.2 0.00 0.00 0.00 62 1015.2
20240304161419 2 236 0.0 0.0 0.00 0.00 0.00 64 1015.1
20240304160648 2 235 0.0 0.0 0.00 0.00 0.00 64 1015.1
20240304160144 1 235 0.0 0.0 0.00 0.00 0.00 66 1015.2
20240304155644 1 235 0.0 0.0 0.00 0.00 0.00 63 1015.2
20240304155146 1 235 0.0 1.6 0.00 0.00 0.00 64 1015.3
20240304154641 1 235 0.0 1.6 0.00 0.00 0.00 64 1015.3
20240304154141 1 163 0.0 1.6 0.00 0.00 0.00 63 1015.2
20240304153642 1 184 0.0 1.6 0.00 0.00 0.00 62 1015.2
20240304153140 1 302 0.0 3.2 0.00 0.00 0.00 64 1015.2
20240304152640 2 153 0.0 4.8 0.00 0.00 0.00 65 1015.2
20240304152141 2 204 0.0 4.8 0.00 0.00 0.00 67 1015.3
20240304151636 1 204 0.0 3.2 0.00 0.00 0.00 67 1015.2
20240304151406 1 135 1.6 4.8 0.00 0.00 0.00 67 1015.4
20240304150635 1 220 1.6 4.8 0.00 0.00 0.00 68 1015.5
20240304150406 1 226 1.6 4.8 0.00 0.00 0.00 68 1015.5
20240304145635 1 189 1.6 3.2 0.00 0.00 0.00 68 1015.5
20240304145135 1 214 0.0 3.2 0.00 0.00 0.00 68 1015.5
20240304144637 1 207 0.0 3.2 0.00 0.00 0.00 69 1015.5
20240304144137 1 144 0.0 3.2 0.00 0.00 0.00 69 1015.5
20240304143636 1 211 0.0 4.8 0.00 0.00 0.00 68 1015.5
20240304143134 1 168 1.6 4.8 0.00 0.00 0.00 68 1015.3
20240304142903 1 205 1.6 4.8 0.00 0.00 0.00 68 1015.2
20240304142131 1 198 1.6 4.8 0.00 0.00 0.00 68 1015.2
20240304141902 1 226 1.6 4.8 0.00 0.00 0.00 68 1015.2
20240304141131 1 198 1.6 4.8 0.00 0.00 0.00 69 1015.2
20240304140631 1 136 1.6 4.8 0.00 0.00 0.00 69 1015.1
20240304140131 1 198 1.6 6.4 0.00 0.00 0.00 69 1014.9
20240304135633 1 204 1.6 6.4 0.00 0.00 0.00 69 1014.9
20240304135132 1 231 1.6 6.4 0.00 0.00 0.00 69 1014.9
20240304134628 1 119 1.6 6.4 0.00 0.00 0.00 69 1014.9
20240304134359 1 179 1.6 6.4 0.00 0.00 0.00 70 1014.9
20240304133859 1 187 3.2 6.4 0.00 0.00 0.00 70 1014.9
20240304133128 1 224 3.2 9.7 0.00 0.00 0.00 70 1014.6
20240304132629 1 210 3.2 9.7 0.00 0.00 0.00 70 1014.7
20240304132128 0 153 3.2 6.4 0.00 0.00 0.00 71 1014.7
20240304131627 0 197 3.2 6.4 0.00 0.00 0.00 72 1014.5
20240304131128 0 208 1.6 4.8 0.00 0.00 0.00 74 1014.5
20240304130629 0 167 0.0 4.8 0.00 0.00 0.00 74 1014.3
20240304130129 0 211 0.0 3.2 0.00 0.00 0.00 75 1014.1
20240304125627 0 194 0.0 3.2 0.00 0.00 0.00 76 1014.0
20240304125400 0 166 1.6 3.2 0.00 0.00 0.00 76 1014.0
20240304124626 0 196 1.6 3.2 0.00 0.00 0.00 75 1013.7
20240304124126 0 207 1.6 3.2 0.00 0.00 0.00 76 1013.5
20240304123626 0 214 1.6 3.2 0.00 0.00 0.00 75 1013.6
20240304123124 0 198 1.6 3.2 0.00 0.00 0.00 76 1013.4
20240304122854 1 148 1.6 3.2 0.00 0.00 0.00 76 1012.9
20240304122123 1 172 1.6 3.2 0.00 0.00 0.00 76 1012.7
20240304121623 1 222 1.6 3.2 0.00 0.00 0.00 76 1012.3
20240304121123 1 215 1.6 3.2 0.00 0.00 0.00 76 1012.4
20240304120621 1 207 0.0 3.2 0.00 0.00 0.00 76 1012.2
20240304120353 1 162 0.0 3.2 0.00 0.00 0.00 76 1012.2
20240304115847 1 211 0.0 3.2 0.00 0.00 0.00 76 1012.1
20240304115114 1 214 1.6 3.2 0.00 0.00 0.00 76 1012.2
20240304114614 1 201 0.0 4.8 0.00 0.00 0.00 76 1012.2
20240304114114 1 121 0.0 4.8 0.00 0.00 0.00 76 1012.4
20240304113618 1 173 0.0 4.8 0.00 0.00 0.00 76 1012.6
20240304113612 1 235 0.0 3.2 0.00 0.00 0.00 76 1012.5